sat.trackr.live / text

‹ back to catalog

STARLINK-31986

NORAD 60019 · 2024-111D

PAYLOAD ACTIVE UNKNOWN

§ Identity

Operator
Country
US
Launch date
2024-06-08
Launch site
AFETR
Launch vehicle
Mass (kg)
RCS (m²)

Purposes: comms

External: N2YO · Heavens-Above · Gunter

§ Orbital elements

Epoch: 2026-09-21T15:59:21.829632Z

Period
93.85 min
Inclination
53.1592°
Eccentricity
0.0001399
Mean motion
15.34384366 rev/d
Perigee alt
461.8 km
Apogee alt
463.7 km
Semi-major
6,840.9 km
B*
1.3801e-5
RAAN
244.2528°
Arg perigee
90.0232°
Mean anomaly
270.0931°
Rev number
12,906

§ Raw data

STARLINK-319861 60019U 24111D   26264.66622488  .00000090  00000+0  13801-4 0  99922 60019  53.1592 244.2528 0001399  90.0232 270.0931 15.34384366129061

JSON: /api/v1/satellites/60019 · /tle

For live sub-satellite position, see the globe view (requires WebGL).

§ Visibility from observer

Set your observer location to see the next 7 days of passes ≥ 10°. The values pass through the URL so the page stays shareable.

No JS? Fill the form by hand. The geolocation button needs JavaScript.